TimeEDT,TemperatureF,Dew PointF,Humidity,Sea Level PressureIn,VisibilityMPH,Wind Direction,Wind SpeedMPH,Gust SpeedMPH,PrecipitationIn,Events,Conditions,WindDirDegrees,DateUTC
12:54 AM,33.1,16.0,50,29.99,10.0,West,5.8,-,N/A,,Partly Cloudy,280,2013-03-24 04:54:00
1:54 AM,32.0,17.1,54,29.97,10.0,West,5.8,-,N/A,,Clear,270,2013-03-24 05:54:00
2:54 AM,34.0,18.0,52,29.95,10.0,West,4.6,-,N/A,,Overcast,270,2013-03-24 06:54:00
3:54 AM,35.1,18.0,50,29.96,10.0,NW,5.8,-,N/A,,Overcast,320,2013-03-24 07:54:00
4:54 AM,34.0,17.1,50,29.96,10.0,North,4.6,-,N/A,,Overcast,350,2013-03-24 08:54:00
5:54 AM,30.9,18.0,59,29.97,10.0,Calm,Calm,-,N/A,,Clear,0,2013-03-24 09:54:00
6:54 AM,28.0,17.1,63,29.99,10.0,Calm,Calm,-,N/A,,Clear,0,2013-03-24 10:54:00
7:54 AM,30.0,18.0,61,29.99,10.0,Calm,Calm,-,N/A,,Clear,0,2013-03-24 11:54:00
8:54 AM,35.1,18.0,50,29.99,10.0,North,4.6,-,N/A,,Clear,10,2013-03-24 12:54:00
9:54 AM,37.0,17.1,44,29.97,10.0,North,5.8,-,0.00,,Clear,360,2013-03-24 13:54:00
10:54 AM,39.0,17.1,41,29.94,10.0,Calm,Calm,-,N/A,,Clear,0,2013-03-24 14:54:00
11:54 AM,39.9,16.0,38,29.89,10.0,North,6.9,-,N/A,,Clear,350,2013-03-24 15:54:00
12:54 PM,42.1,17.1,37,29.86,10.0,NNW,6.9,-,N/A,,Clear,340,2013-03-24 16:54:00
1:54 PM,43.0,17.1,35,29.81,10.0,Variable,4.6,-,N/A,,Clear,0,2013-03-24 17:54:00
2:54 PM,46.0,16.0,30,29.75,10.0,Variable,3.5,-,N/A,,Clear,0,2013-03-24 18:54:00
3:54 PM,45.0,15.1,30,29.74,10.0,NNE,10.4,-,N/A,,Clear,20,2013-03-24 19:54:00
4:54 PM,44.1,16.0,32,29.73,10.0,NE,6.9,-,N/A,,Overcast,40,2013-03-24 20:54:00
5:54 PM,43.0,17.1,35,29.72,10.0,NNE,9.2,-,N/A,,Overcast,30,2013-03-24 21:54:00
6:54 PM,42.1,18.0,38,29.71,10.0,NE,6.9,-,N/A,,Overcast,50,2013-03-24 22:54:00
7:54 PM,41.0,19.0,41,29.72,10.0,ENE,3.5,-,N/A,,Overcast,60,2013-03-24 23:54:00
8:54 PM,39.0,19.9,46,29.73,10.0,East,4.6,-,N/A,,Clear,80,2013-03-25 00:54:00
9:54 PM,37.9,21.0,51,29.72,10.0,ESE,5.8,-,N/A,,Overcast,110,2013-03-25 01:54:00
10:54 PM,37.0,21.0,52,29.69,10.0,East,5.8,-,N/A,,Clear,100,2013-03-25 02:54:00
11:54 PM,37.0,21.0,52,29.67,10.0,East,4.6,-,N/A,,Mostly Cloudy,90,2013-03-25 03:54:00